This is the latest recevied weather packets stored in our database for station/object EA4IAJ-12. If no packets are shown the sender has not sent any weather packets the latest 10 day(s).
| Time | Temp. | Humidity | Pressure | Rain* | Wind** | Luminosity | Snow |
|---|---|---|---|---|---|---|---|
| 1777912224 | 22.78° C | 88% | 1035.7 hPa | - | - | - | - |
| 1777911323 | 22.22° C | 89% | 1033.5 hPa | - | - | - | - |
| 1777910423 | 20° C | 87% | 1025.3 hPa | - | - | - | - |
| 1777909534 | 22.22° C | 93% | 1035.6 hPa | - | - | - | - |
| 1777908633 | 21.67° C | 94% | 1032.9 hPa | - | - | - | - |
| 1777907733 | 23.33° C | 98% | 1039.7 hPa | - | - | - | - |
| 1777906832 | 23.33° C | 99% | 1040 hPa | - | - | - | - |
| 1777905932 | 22.78° C | 100% | 1037.3 hPa | - | - | - | - |
| 1777905031 | 22.22° C | 100% | 1035.8 hPa | - | - | - | - |
| 1777904130 | 21.67° C | 100% | 1034.6 hPa | - | - | - | - |
| 1777902329 | 22.78° C | 100% | 1039 hPa | - | - | - | - |
| 1777901429 | 21.67° C | 100% | 1035 hPa | - | - | - | - |
| 1777900528 | 20.56° C | 100% | 1028.8 hPa | - | - | - | - |
| 1777899628 | 21.67° C | 100% | 1033.8 hPa | - | - | - | - |
| 1777898727 | 22.78° C | 100% | 1039.5 hPa | - | - | - | - |
| 1777897827 | 22.78° C | 100% | 1039.1 hPa | - | - | - | - |
| 1777896926 | 22.22° C | 100% | 1038.6 hPa | - | - | - | - |
| 1777896026 | 21.11° C | 100% | 1034.2 hPa | - | - | - | - |
| 1777895126 | 21.11° C | 100% | 1033.4 hPa | - | - | - | - |
| 1777894225 | 21.67° C | 100% | 1036.6 hPa | - | - | - | - |
| 1777893324 | 21.67° C | 100% | 1035.7 hPa | - | - | - | - |
| 1777892424 | 22.22° C | 100% | 1040.2 hPa | - | - | - | - |
| 1777891523 | 22.22° C | 100% | 1039.7 hPa | - | - | - | - |
| 1777890623 | 21.11° C | 100% | 1034.6 hPa | - | - | - | - |
| 1777889722 | 21.67° C | 100% | 1039 hPa | - | - | - | - |
* Rain since midnight (hover to see other rain measurements)
** Current wind speed in m/s (hover to see current wind gust speed)